Location: Pardubice
(50.0330°N, 15.7830°E)
Time: 09:37:37
(UTC+02:00)

ISS - Visible Passes

Search period start: 22 October 2018 00:00
Search period end: 31 October 2018 23:00
Orbit: 402 x 408 km, 51.6° (Epoch: 22 October)

Date Brightness Start Highest point End Pass type
(mag) Time Alt. Az. Time Alt. Az. Time Alt. Az.
27 Oct -0.8 06:16:06 10° SSE 06:17:41 13° SE 06:19:15 10° ESE visible
28 Oct -2.3 05:58:37 10° SW 06:01:40 37° SSE 06:04:44 10° E visible
29 Oct -1.7 05:07:03 10° SSW 05:09:46 24° SE 05:12:29 10° E visible
30 Oct -1.2 04:17:23 15° SSE 04:17:54 15° SE 04:19:56 10° E visible
30 Oct -3.4 05:50:40 10° WSW 05:53:55 64° SSE 05:57:11 10° ENE visible
31 Oct -2.9 05:00:31 26° SSW 05:01:55 43° SSE 05:05:03 10° E visible
